Regional Weather Roundup
Issued by NWS

Home | Current Version | Previous Version | Text Only | Print | Product List | Glossary On
Versions: 1 2 3 4 5 6 7 8 9 10 11 12 13 14 15 16 17 18 19 20 21 22 23 24 25 26 27 28 29 30 31 32 33 34 35 36 37 38 39 40 41 42 43 44 45 46 47 48 49 50
000
ASUS46 KPQR 111910
RWROR

OREGON REGIONAL WEATHER ROUNDUP
NATIONAL WEATHER SERVICE PORTLAND OR
1100 AM PST THU FEB 11 2016

NOTE: "FAIR" INDICATES FEW OR NO CLOUDS BELOW 12,000 FEET WITH
NO SIGNIFICANT WEATHER AND/OR OBSTRUCTIONS TO VISIBILITY.

ORZ001>013-112000-
NORTHWEST OREGON


CITY           SKY/WX    TMP DP  RH WIND       PRES   REMARKS
ASTORIA        LGT RAIN  58  50  75 E10       30.08S
NEWPORT        CLOUDY    54  54 100 E5        30.14S
PORTLAND       CLOUDY    58  47  66 SE10      30.18R
VANCOUVER WA   CLOUDY    55  46  71 SE7       30.18R
SCAPPOOSE      LGT RAIN  55  49  80 SE3       30.16S
HILLSBORO      LGT RAIN  52  49  89 SE3       30.17S FOG
AURORA         LGT RAIN  53  49  86 CALM      30.18S FOG
MCMINNVILLE    RAIN      53  50  89 E7        30.16F FOG
SALEM          LGT RAIN  54  50  86 CALM      30.15F
CORVALLIS      CLOUDY    52  50  93 SW3       30.18R
EUGENE         LGT RAIN  53  48  83 CALM      30.16S
$$

ORZ021-028-112000-
SOUTHWEST OREGON


CITY           SKY/WX    TMP DP  RH WIND       PRES   REMARKS
NORTH BEND     CLOUDY    59  55  88 SE8       30.14R
BROOKINGS      PTSUNNY   58  50  75 VRB6      30.13F
ROSEBURG       PTSUNNY   57  50  77 CALM      30.15S
SEXTON SUMMIT  PTSUNNY   57  33  40 SE6       30.17F
MEDFORD        PTSUNNY   53  43  68 CALM      30.16F
$$

ORZ014>016-041-112000-
COLUMBIA GORGE


CITY           SKY/WX    TMP DP  RH WIND       PRES   REMARKS
TROUTDALE      LGT RAIN  55  44  66 E22G28    30.18R
THE DALLES     CLOUDY    49  41  74 E5        30.30S
$$

ORZ029>031-041-044-049-050-061>064-502-503-505>511-112000-
EASTERN OREGON


CITY           SKY/WX    TMP DP  RH WIND       PRES   REMARKS
REDMOND        CLOUDY    47  37  68 CALM      30.25S
BEND           CLOUDY    48  36  61 CALM      30.24S
PRINEVILLE     CLOUDY    48  39  71 CALM      30.25S
KLAMATH FALLS  PTSUNNY   50  35  56 CALM      30.24F
LAKEVIEW       MOSUNNY   43  30  61 N3        30.30F
HERMISTON      PTSUNNY   49  39  68 CALM      30.28S
PENDLETON      PTSUNNY   51  41  68 NW9       30.23F
JOHN DAY       CLOUDY    54  32  43 SE6       30.25S
MEACHAM        CLOUDY    45  31  58 CALM      30.24F
LA GRANDE      CLOUDY    45  30  57 S21G30    30.31S
BAKER CITY     MOSUNNY   38  33  82 SW6       30.35F WCI  33
BURNS          CLOUDY    34  29  82 CALM      30.32S
ROME             N/A     34  32  92 SW3       30.32F
ONTARIO        PTSUNNY   41  33  73 CALM      30.44F
$$



USA.gov is the U.S. government's official web portal to all federal, state and local government web resources and services.